EW1970 Weather Reports


Display with metric or nautical units.
time (UTC)temp
F
wind
direction
speed
MPH
gust
MPH
rain 1hr
in
rain 24hr
in
rain mn
in
humidity
%
barometer
mb
20260831193010 99 123 1.0 7.0 0.00 0.00 0.00 41 1016.4
20260831191502 97 178 1.0 4.0 0.00 0.00 0.00 42 1016.7
20260831190003 98 142 1.0 10.0 0.00 0.00 0.00 42 1017.0
20260831184503 97 94 0.0 5.0 0.00 0.00 0.00 42 1017.2
20260831183008 95 30 1.0 7.0 0.00 0.00 0.00 44 1017.2
20260831181521 97 258 2.0 4.0 0.00 0.00 0.00 46 1017.3
20260831180003 96 50 0.0 3.0 0.00 0.00 0.00 48 1017.5
20260831174504 94 254 1.0 7.0 0.00 0.00 0.00 52 1017.9
20260831173007 95 98 0.0 6.0 0.00 0.00 0.00 51 1017.9
20260831171522 92 246 0.0 5.0 0.00 0.00 0.00 53 1018.1
20260831170045 93 140 1.0 4.0 0.00 0.00 0.00 56 1018.3
20260831164503 92 250 0.0 5.0 0.00 0.00 0.00 58 1018.3
20260831163005 90 144 1.0 5.0 0.00 0.00 0.00 60 1018.1
20260831161509 88 211 1.0 4.0 0.00 0.00 0.00 62 1018.2
20260831160029 89 179 1.0 7.0 0.00 0.00 0.00 63 1018.2
20260831154558 87 194 0.0 5.0 0.00 0.00 0.00 67 1018.3
20260831153007 86 255 1.0 4.0 0.00 0.00 0.00 70 1018.2
20260831151510 85 254 1.0 7.0 0.00 0.00 0.00 72 1018.1
20260831150014 84 242 1.0 7.0 0.00 0.00 0.00 75 1018.1
20260831144526 82 178 2.0 4.0 0.00 0.00 0.00 78 1017.8
20260831143027 81 266 0.0 7.0 0.00 0.00 0.00 80 1017.8
20260831141532 81 34 0.0 6.0 0.00 0.00 0.00 81 1017.8
20260831140017 81 182 1.0 5.0 0.00 0.00 0.00 83 1017.5
20260831134518 80 256 0.0 2.0 0.00 0.00 0.00 86 1017.4
20260831133035 79 239 1.0 8.0 0.00 0.00 0.00 88 1017.3
20260831131530 78 173 0.0 2.0 0.00 0.00 0.00 89 1017.1
20260831130009 77 272 0.0 2.0 0.00 0.00 0.00 89 1017.1
20260831124518 77 297 0.0 2.0 0.00 0.00 0.00 89 1016.8
20260831123024 77 52 0.0 2.0 0.00 0.00 0.00 88 1016.8
20260831121529 77 155 0.0 3.0 0.00 0.00 0.00 88 1016.7
20260831120032 78 223 0.0 3.0 0.00 0.00 0.00 87 1016.7
20260831114515 78 132 0.0 6.0 0.00 0.00 0.00 87 1016.7
20260831113024 78 175 0.0 2.0 0.00 0.00 0.00 87 1016.6
20260831111531 78 211 0.0 2.0 0.00 0.00 0.00 87 1016.5
20260831110031 78 253 0.0 5.0 0.00 0.00 0.00 86 1016.4
20260831104539 78 214 1.0 7.0 0.00 0.00 0.00 86 1016.4
20260831103037 78 221 0.0 3.0 0.00 0.00 0.00 86 1016.5
20260831101503 78 350 0.0 3.0 0.00 0.00 0.00 86 1016.6
20260831100008 78 246 0.0 4.0 0.00 0.00 0.00 86 1016.7
20260831094523 78 259 1.0 3.0 0.00 0.00 0.00 86 1016.6
20260831093016 78 107 0.0 2.0 0.00 0.00 0.00 86 1016.5
20260831091524 78 277 0.0 2.0 0.00 0.00 0.00 86 1016.4
20260831090004 78 252 0.0 2.0 0.00 0.00 0.00 85 1016.4
20260831084507 78 38 0.0 3.0 0.00 0.00 0.00 84 1016.4
20260831083022 79 220 0.0 3.0 0.00 0.00 0.00 83 1016.4
20260831081519 79 94 0.0 4.0 0.00 0.00 0.00 82 1016.5
20260831080047 79 19 0.0 4.0 0.00 0.00 0.00 81 1016.4
20260831074507 79 82 0.0 3.0 0.00 0.00 0.00 79 1016.4
20260831073025 80 145 0.0 2.0 0.00 0.00 0.00 79 1016.6
20260831071516 80 162 1.0 4.0 0.00 0.00 0.00 78 1016.6
20260831070029 80 273 1.0 6.0 0.00 0.00 0.00 76 1016.6
20260831064531 81 131 0.0 2.0 0.00 0.00 0.00 75 1016.7
20260831063012 81 182 0.0 3.0 0.00 0.00 0.00 74 1016.7
20260831061513 82 238 0.0 4.0 0.00 0.00 0.00 73 1016.7
20260831060022 82 167 0.0 6.0 0.00 0.00 0.00 72 1016.5
20260831054529 83 5 0.0 7.0 0.00 0.00 0.00 70 1016.3
20260831053031 83 105 1.0 5.0 0.00 0.00 0.00 68 1016.2
20260831051513 83 119 0.0 3.0 0.00 0.00 0.00 67 1016.2
20260831050021 84 70 0.0 5.0 0.00 0.00 0.00 65 1016.1
20260831044527 84 352 0.0 4.0 0.00 0.00 0.00 64 1016.0
20260831043033 85 166 1.0 6.0 0.00 0.00 0.00 63 1016.0
20260831041546 85 211 1.0 8.0 0.00 0.00 0.00 63 1016.1
20260831040015 86 204 1.0 8.0 0.00 0.00 0.00 62 1016.0
20260831034529 86 5 1.0 8.0 0.00 0.00 0.00 62 1015.8
20260831033029 86 130 1.0 8.0 0.00 0.00 0.00 61 1015.7
20260831031540 87 204 1.0 7.0 0.00 0.00 0.00 60 1015.5
20260831030032 87 125 1.0 7.0 0.00 0.00 0.00 61 1015.2
20260831024520 87 79 1.0 4.0 0.00 0.00 0.00 60 1015.0
20260831023004 87 198 1.0 7.0 0.00 0.00 0.00 59 1014.9
20260831021508 88 116 1.0 10.0 0.00 0.00 0.00 56 1014.6
20260831020013 86 128 2.0 9.0 0.00 0.00 0.00 55 1014.3
20260831014516 86 132 0.0 2.0 0.00 0.00 0.00 52 1014.1
20260831013024 87 93 0.0 2.0 0.00 0.00 0.00 51 1013.9
20260831011505 88 185 0.0 2.0 0.00 0.00 0.00 50 1013.7
20260831010010 89 121 0.0 2.0 0.00 0.00 0.00 50 1013.9
20260831004516 90 121 0.0 3.0 0.00 0.00 0.00 49 1013.8
20260831003021 91 142 0.0 4.0 0.00 0.00 0.00 47 1013.7
20260831001528 91 107 0.0 2.0 0.00 0.00 0.00 47 1013.6
20260831000019 91 167 1.0 5.0 0.00 0.00 0.00 46 1013.6
20260830234543 91 129 0.0 3.0 0.00 0.00 0.00 49 1013.7
20260830233021 92 144 0.0 4.0 0.00 0.00 0.00 46 1013.7
20260830231522 94 40 0.0 2.0 0.00 0.00 0.00 44 1013.7
20260830230032 93 117 0.0 3.0 0.00 0.00 0.00 45 1013.7
20260830224511 93 150 0.0 4.0 0.00 0.00 0.00 44 1013.8
20260830223018 96 60 0.0 5.0 0.00 0.00 0.00 40 1013.8
20260830221528 96 30 0.0 4.0 0.00 0.00 0.00 40 1013.8
20260830220030 98 143 1.0 4.0 0.00 0.00 0.00 40 1013.9
20260830214532 98 28 0.0 4.0 0.00 0.00 0.00 40 1014.1
20260830213021 99 130 1.0 6.0 0.00 0.00 0.00 39 1014.2
20260830211520 99 190 1.0 3.0 0.00 0.00 0.00 39 1014.7
20260830210028 99 242 1.0 9.0 0.00 0.00 0.00 38 1015.0
20260830204540 97 289 2.0 5.0 0.00 0.00 0.00 42 1015.2
20260830203049 99 162 1.0 6.0 0.00 0.00 0.00 40 1015.3
20260830201517 100 287 1.0 6.0 0.00 0.00 0.00 40 1015.5
20260830200039 99 198 0.0 6.0 0.00 0.00 0.00 42 1015.7
20260830195441 99 229 1.0 5.0 0.00 0.00 0.00 42 1015.9
20260830195435 99 64 0.0 8.0 0.00 0.00 0.00 41 1016.1